Cleveland, OH

9:31 PM EDT on June 25, 2017 (GMT -0400)
Cleveland-Hopkins International

Weather History for KCLE - January, 2013

Change the Weather History Date:

Tuesday, January 22, 2013

  Actual Average Record
Temperature  
Mean Temperature 9 °F 28 °F  
Max Temperature 11 °F 34 °F 71 °F (1906)
Min Temperature 7 °F 22 °F -10 °F (1936)
Degree Days  
Heating Degree Days 56 37  
Month to date heating degree days 731 813  
Since 1 July heating degree days 2812 2920  
Cooling Degree Days 0 0  
Month to date cooling degree days 0 0  
Year to date cooling degree days 0 0  
Moisture  
Dew Point 0 °F    
Average Humidity 72    
Maximum Humidity 80    
Minimum Humidity 63    
Precipitation  
Precipitation 0.02 in 0.08 in 0.56 in (1957)
Month to date precipitation 0.97 2.00  
Year to date precipitation 0.97 2.00  
Snow  
Snow 1.00 in 0.60 in - ()
Month to date snowfall 1.6 13.2  
Since 1 July snowfall 17.1 31.8  
Snow Depth 1.00 in    
Sea Level Pressure  
Sea Level Pressure 30.24 in    
Wind  
Wind Speed 15 mph (West)    
Max Wind Speed 28 mph    
Max Gust Speed 34 mph    
Visibility 5 miles    
Events Fog , Snow    
T = Trace of Precipitation, MM = Missing Value Source: NWS Daily Summary

Daily Weather History Graph

Daily Weather History Graph

Search for Another Location

Airport or City:

Trip Planner

Search our weather history database for the weather conditions in past years. The results will help you decide how hot, cold, wet, or windy it might be!

Date:

Astronomy

Jan. 22, 2013 Rise Set
Actual Time 7:47 AM EST 5:31 PM EST
Civil Twilight 7:17 AM EST 6:01 PM EST
Nautical Twilight 6:43 AM EST 6:35 PM EST
Astronomical Twilight 6:10 AM EST 7:08 PM EST
Moon 1:52 PM EST (1/22) 4:08 AM EST (1/22)
Length of Visible Light 10h 44m
Length of Day
9h 44m
Waxing Gibbous, 82% of the Moon is Illuminated
Jan 22
Waxing Gibbous
Jan 26
Full
Feb 3
Last Quarter
Feb 10
New
Feb 17
First Quarter

Hourly Weather History & Observations

Time (EST) Temp. Windchill Dew Point Humidity Pressure Visibility Wind Dir Wind Speed Gust Speed Precip Events Conditions
12:51 AM 10.0 °F -9.1 °F 1.9 °F 70% 30.13 in 8.0 mi WSW 20.7 mph - 0.00 in Snow Light Snow
1:16 AM 10.0 °F -8.1 °F 3.9 °F 76% 30.09 in 2.0 mi WSW 18.4 mph - 0.00 in Snow Light Snow
1:31 AM 9.0 °F -10.0 °F 3.0 °F 77% 30.10 in 6.0 mi WSW 19.6 mph 32.2 mph 0.00 in Snow Light Snow
1:51 AM 9.0 °F -11.8 °F 1.0 °F 70% 30.14 in 7.0 mi WSW 24.2 mph 28.8 mph 0.00 in Snow Light Snow
2:51 AM 8.1 °F -11.7 °F -0.9 °F 67% 30.17 in 9.0 mi WSW 20.7 mph 27.6 mph 0.00 in Snow Light Snow
3:51 AM 9.0 °F -7.9 °F -0.0 °F 67% 30.18 in 9.0 mi West 15.0 mph - 0.00 in Snow Light Snow
4:01 AM 9.0 °F -7.9 °F -0.0 °F 67% 30.13 in 4.0 mi West 15.0 mph - 0.00 in Snow Light Snow
4:05 AM 9.0 °F -10.0 °F 1.0 °F 70% 30.13 in 1.8 mi West 19.6 mph 27.6 mph 0.00 in Snow Light Snow
4:11 AM 8.1 °F -10.2 °F 1.9 °F 76% 30.14 in 0.5 mi West 17.3 mph 27.6 mph 0.00 in Snow Snow
4:16 AM 8.1 °F -11.2 °F 3.0 °F 80% 30.14 in 0.5 mi West 19.6 mph - 0.00 in Snow Snow
4:26 AM 8.1 °F -9.6 °F 3.9 °F 83% 30.14 in 0.5 mi West 16.1 mph - 0.01 in Fog , Snow Snow
4:51 AM 8.6 °F -8.3 °F 3.2 °F 79% 30.14 in 0.5 mi West 15.0 mph - N/A Fog , Snow Snow
5:07 AM 7.0 °F -9.8 °F 3.9 °F 87% 30.15 in 1.0 mi WSW 13.8 mph - 0.01 in Snow Light Snow
5:26 AM 7.0 °F -8.3 °F 3.9 °F 87% 30.16 in 1.5 mi WSW 11.5 mph - 0.01 in Snow Light Snow
5:36 AM 8.1 °F -7.0 °F 3.9 °F 83% 30.16 in 2.0 mi WSW 11.5 mph - 0.01 in Snow Light Snow
5:40 AM 8.1 °F -7.0 °F 3.9 °F 83% 30.16 in 3.0 mi WSW 11.5 mph - 0.01 in Snow Light Snow
5:51 AM 8.1 °F -6.2 °F 3.9 °F 83% 30.21 in 8.0 mi West 10.4 mph - 0.01 in Snow Light Snow
6:25 AM 8.1 °F -9.0 °F -0.0 °F 70% 30.18 in 2.5 mi West 15.0 mph 24.2 mph 0.00 in Snow Light Snow
6:31 AM 8.1 °F -9.0 °F -0.9 °F 67% 30.18 in 4.0 mi WNW 15.0 mph 23.0 mph 0.00 in Snow Light Snow
6:51 AM 8.1 °F -10.2 °F -0.9 °F 67% 30.24 in 9.0 mi West 17.3 mph 25.3 mph 0.00 in Snow Light Snow
7:43 AM 7.0 °F -9.8 °F -0.9 °F 70% 30.21 in 4.0 mi West 13.8 mph 24.2 mph 0.00 in Snow Light Snow
7:51 AM 7.0 °F -12.1 °F -0.9 °F 70% 30.26 in 3.0 mi West 18.4 mph 26.5 mph 0.00 in Snow Light Snow
7:54 AM 7.0 °F -13.1 °F -0.9 °F 70% 30.21 in 2.0 mi WNW 20.7 mph 26.5 mph 0.00 in Snow Light Snow
8:02 AM 7.0 °F -12.1 °F -0.0 °F 73% 30.22 in 1.8 mi WNW 18.4 mph 27.6 mph 0.00 in Snow Light Snow
8:19 AM 7.0 °F -12.1 °F -0.9 °F 70% 30.23 in 2.5 mi WNW 18.4 mph 26.5 mph 0.00 in Snow Light Snow
8:25 AM 6.8 °F -11.3 °F -0.4 °F 72% 30.23 in 4.0 mi WNW 16.1 mph 25.3 mph N/A Snow Light Snow
8:51 AM 7.0 °F -13.1 °F -0.9 °F 70% 30.29 in 5.0 mi West 20.7 mph 27.6 mph 0.00 in Snow Light Snow
9:51 AM 7.0 °F -13.1 °F -2.0 °F 67% 30.32 in 7.0 mi WNW 20.7 mph 26.5 mph 0.00 in Snow Light Snow
9:58 AM 7.0 °F -12.6 °F -0.9 °F 70% 30.27 in 1.8 mi West 19.6 mph 26.5 mph 0.00 in Snow Light Snow
10:08 AM 7.0 °F -12.6 °F -2.0 °F 67% 30.27 in 4.0 mi West 19.6 mph 27.6 mph 0.00 in Snow Light Snow
10:20 AM 7.0 °F -12.6 °F -0.9 °F 70% 30.28 in 1.5 mi WNW 19.6 mph 27.6 mph 0.00 in Snow Light Snow
10:31 AM 7.0 °F -12.1 °F -0.9 °F 70% 30.28 in 3.0 mi West 18.4 mph 27.6 mph 0.00 in Snow Light Snow
10:51 AM 8.1 °F -9.6 °F -0.9 °F 67% 30.33 in 7.0 mi West 16.1 mph 24.2 mph 0.00 in Snow Light Snow
11:11 AM 8.1 °F -9.6 °F -0.0 °F 70% 30.29 in 1.5 mi WNW 16.1 mph - 0.00 in Snow Light Snow
11:23 AM 8.1 °F -8.4 °F -0.0 °F 70% 30.28 in 3.0 mi West 13.8 mph - 0.00 in Snow Light Snow
11:33 AM 7.0 °F -10.4 °F -0.0 °F 73% 30.29 in 2.0 mi West 15.0 mph - 0.00 in Snow Light Snow
11:44 AM 7.0 °F -8.3 °F 1.9 °F 80% 30.28 in 0.8 mi West 11.5 mph 23.0 mph 0.00 in Snow Light Snow
11:51 AM 8.1 °F -9.0 °F 3.0 °F 80% 30.34 in 0.5 mi West 15.0 mph - 0.00 in Snow Light Snow
12:15 PM 7.0 °F -9.8 °F 1.9 °F 80% 30.27 in 0.5 mi West 13.8 mph - 0.00 in Snow Snow
12:51 PM 8.1 °F -6.2 °F 3.0 °F 80% 30.32 in 1.0 mi West 10.4 mph - 0.00 in Snow Light Snow
12:56 PM 8.1 °F -7.0 °F 1.0 °F 73% 30.26 in 3.0 mi West 11.5 mph - 0.01 in Snow Light Snow
1:17 PM 10.0 °F -9.5 °F -2.9 °F 56% 30.25 in 7.0 mi West 21.9 mph 27.6 mph 0.01 in   Mostly Cloudy
1:51 PM 9.0 °F -8.5 °F -0.9 °F 64% 30.30 in 10.0 mi West 16.1 mph 23.0 mph 0.01 in Snow Light Snow
2:14 PM 10.9 °F -7.5 °F -0.0 °F 61% 30.24 in 8.0 mi WSW 19.6 mph 23.0 mph 0.00 in Snow Light Snow
2:51 PM 10.0 °F -5.9 °F -0.9 °F 61% 30.31 in 9.0 mi West 13.8 mph - 0.00 in Snow Light Snow
3:51 PM 10.0 °F -5.9 °F -0.9 °F 61% 30.31 in 9.0 mi WNW 13.8 mph 23.0 mph 0.00 in Snow Light Snow
4:51 PM 10.0 °F -3.7 °F -0.0 °F 64% 30.31 in 9.0 mi West 10.4 mph - 0.00 in Snow Light Snow
5:51 PM 8.1 °F -6.2 °F -0.9 °F 67% 30.32 in 10.0 mi WSW 10.4 mph - 0.00 in   Scattered Clouds
6:51 PM 7.0 °F -7.5 °F -0.9 °F 70% 30.34 in 10.0 mi WSW 10.4 mph - 0.00 in   Mostly Cloudy
7:51 PM 8.1 °F -6.2 °F 1.0 °F 73% 30.33 in 10.0 mi SW 10.4 mph - N/A   Mostly Cloudy
8:51 PM 8.1 °F -9.6 °F 1.0 °F 73% 30.33 in 10.0 mi WSW 16.1 mph - N/A   Overcast
9:40 PM 9.0 °F -7.3 °F -0.0 °F 67% 30.27 in 10.0 mi WSW 13.8 mph - N/A   Overcast
9:51 PM 8.1 °F -7.7 °F -0.0 °F 70% 30.32 in 10.0 mi WSW 12.7 mph - N/A   Overcast
9:58 PM 8.1 °F -7.7 °F -0.0 °F 70% 30.27 in 10.0 mi WSW 12.7 mph - N/A   Overcast
10:51 PM 8.1 °F -7.7 °F -0.9 °F 67% 30.32 in 10.0 mi SW 12.7 mph - N/A   Overcast
11:51 PM 8.1 °F -6.2 °F -2.0 °F 64% 30.33 in 10.0 mi SW 10.4 mph - N/A   Overcast